Temp
10 9 8 8 8 8 8 8 8 8 9 9 10 12 14 16 16 16 16 16 16 16 15 14 14 15 15 16 16 16 16 17 17 17 16 15 15 15 17 15 15 15 15 15 15 14 15
9 8 8 8 8 8 8 8 8 8 8 8 9 11 14 16 16 16 16 16 16 16 15 14 14 15 15 18 16 16 16 17 17 17 15 14 14 14 14 14 15 14 14 13 14 14 14
8 8 8 8 8 8 7 7 7 8 8 8 9 11 14 15 15 15 15 16 16 15 14 14 14 14 15 16 15 16 16 16 16 16 14 14 14 15 14 14 13 14 15 14 13 14 15
8 7 7 7 7 7 7 7 7 7 7 8 10 12 13 14 15 15 16 16 15 14 14 14 14 14 15 15 15 15 15 15 15 15 15 14 15 13 14 13 14 14 14 16 16 14 15
7 7 7 7 7 7 7 7 7 7 7 8 10 13 14 14 15 15 15 15 14 14 14 14 14 14 15 15 15 15 15 15 15 15 14 14 14 12 13 13 14 12 16 14 15 14 15
7 7 7 6 7 7 7 7 7 7 7 8 10 14 14 15 15 14 15 14 13 13 13 13 13 15 15 14 15 15 15 15 14 14 14 13 10 11 10 13 16 16 15 13 14 16 14
7 6 6 6 6 7 6 6 6 7 7 8 12 14 14 14 13 14 15 14 12 13 12 12 12 14 14 14 15 14 14 15 14 13 14 11 13 14 13 12 15 15 14 14 14 14 15
6 6 6 6 6 6 6 6 6 6 7 10 13 13 13 13 13 15 14 8 9 9 12 11 12 12 13 14 14 14 14 14 14 13 12 12 13 13 13 13 13 12 13 12 13 13 13
6 6 6 6 6 6 6 6 6 6 7 10 12 12 14 13 13 13 10 8 9 9 11 13 13 14 14 14 14 14 14 13 13 13 13 13 15 13 14 14 13 12 12 13 14 13 12
6 6 6 5 6 5 5 6 6 6 9 12 11 12 13 13 13 10 9 9 9 9 10 14 14 14 14 13 14 13 13 14 13 14 12 11 12 14 14 13 12 13 13 13 14 13 13
5 6 5 5 5 5 5 5 6 7 11 12 11 11 12 12 11 9 9 10 10 9 11 15 14 15 14 14 14 13 13 13 13 13 13 14 14 14 13 14 13 14 14 13 13 12 12
5 5 5 5 5 5 5 5 6 9 12 11 11 11 12 12 11 9 10 10 10 10 10 14 13 13 13 13 13 13 13 13 13 12 11 11 11 13 13 14 12 14 14 11 9 10 11
5 5 5 5 4 5 5 5 5 8 11 11 11 11 11 10 8 9 10 9 10 10 13 13 12 11 10 12 13 12 12 11 11 11 11 11 11 12 13 13 12 13 11 11 11 10 12
5 5 4 4 4 4 5 5 8 10 11 11 11 11 10 10 10 10 10 10 12 12 11 11 11 10 12 10 12 10 11 9 8 9 9 8 10 13 13 14 14 11 11 11 11 11 12
5 4 4 4 4 4 5 5 9 11 12 11 11 11 10 10 10 10 8 8 9 11 10 9 10 12 12 10 10 10 7 5 5 5 8 8 10 12 12 13 14 12 11 12 12 9 9
4 4 4 4 4 4 5 5 8 12 13 11 11 10 10 11 11 11 7 9 9 9 8 10 11 9 10 8 9 8 9 4 4 5 4 6 7 9 11 12 12 12 12 12 10 10 11
4 4 4 4 4 4 4 5 8 11 11 10 10 8 10 11 11 5 7 8 9 7 8 9 9 9 7 6 6 8 6 2 4 4 4 3 5 9 10 11 10 10 10 10 9 9 11
4 4 4 3 3 4 4 5 9 10 10 10 7 9 10 10 7 2 6 7 7 5 5 6 7 6 6 5 6 7 5 3 5 5 4 4 3 5 7 8 8 8 8 8 8 9 8
3 3 3 3 3 3 4 5 9 10 9 9 4 4 9 9 7 4 6 5 4 5 4 4 4 4 4 5 6 5 4 4 4 5 4 4 3 3 6 7 4 4 5 6 5 6 7
3 3 3 3 3 4 4 4 7 9 9 9 3 7 3 -0 0 4 5 4 5 4 3 3 3 3 3 2 3 3 3 4 3 3 6 4 1 2 2 3 3 3 4 5 4 3 4
3 3 3 3 3 4 4 5 6 8 9 9 -1 1 1 3 2 1 2 4 4 3 3 2 3 2 2 2 2 2 3 2 2 3 2 2 1 1 2 2 3 3 3 3 3 3 3
3 3 3 3 3 4 5 5 6 8 8 5 2 1 -1 -1 1 2 1 1 2 2 2 2 2 2 1 1 2 1 1 1 0 1 1 1 1 2 1 2 3 3 4 2 3 2 4
3 3 2 3 3 3 4 5 6 7 8 2 -0 1 0 0 0 2 0 1 2 2 3 2 2 1 1 2 1 -0 -1 -0 1 0 -1 -0 0 1 1 2 2 2 1 1 -0 -2 -1
3 2 2 2 3 3 3 3 4 5 6 4 1 1 2 1 1 1 1 2 1 1 1 1 1 1 2 -0 -1 -0 -2 -2 -2 -2 -0 -1 -1 1 1 1 -1 1 1 0 -2 -3 -3
2 2 2 2 2 2 2 2 3 4 4 4 1 1 -1 -1 1 1 1 1 0 -0 0 1 2 1 -1 -0 -0 0 1 2 2 2 -1 -1 -1 0 -0 -0 1 0 -1 -2 -3 -3 -5
2 2 2 2 2 2 2 2 2 3 4 3 1 2 -0 -1 -0 1 -0 0 -2 -2 -2 0 1 0 0 1 1 0 0 1 1 1 1 -0 -3 -2 -1 -0 -1 -4 -3 -2 -3 -1 -5
2 2 2 2 2 2 2 2 2 3 3 3 1 2 1 -3 -1 -1 -1 -1 -2 -2 -2 -2 -1 -1 -1 -1 0 -0 -0 -0 -1 -1 0 -1 -3 -3 -2 -3 -5 -6 -4 -3 -3 -4 -5
2 2 2 2 2 2 2 2 2 3 3 3 0 1 1 -5 -2 -0 0 -1 -2 -2 -3 -2 -2 -2 -3 -1 -1 -3 -2 -2 -1 -1 -0 -1 -2 -4 -5 -6 -5 -5 -4 -5 -7 -6 -6
2 2 1 1 1 2 2 2 2 2 2 3 1 1 1 -0 -2 -0 0 1 1 1 -1 -3 -3 -2 -3 -3 -2 -0 0 -2 -3 0 -3 -1 -5 -3 -3 -3 -6 -5 -6 -6 -7 -7 -7
Height
840 838 837 836 834 834 831 828 825 823 821 818 816 813 810 808 805 803 801 799 797 795 793 792 791 791 791 792 795 794 794 794 793 792 791 793 797 801 803 804 804 804 801 799 797 800 800
840 839 837 836 835 834 832 828 825 822 820 818 815 812 809 806 804 802 800 798 795 793 791 790 790 791 791 793 792 792 793 793 793 793 794 794 796 797 801 803 804 806 805 802 799 797 798
839 838 837 837 835 834 831 828 825 822 819 816 813 810 807 805 802 799 797 795 793 791 790 790 790 790 791 793 792 793 793 793 794 794 795 796 796 797 801 803 803 803 802 798 797 796 795
841 839 838 837 835 834 831 828 825 821 818 815 812 808 805 802 799 797 795 793 791 790 790 790 791 791 792 792 792 793 793 794 795 794 795 796 796 799 801 803 804 804 806 802 791 795 793
840 839 838 837 835 833 831 828 825 821 817 813 810 806 803 800 797 795 793 791 790 790 791 790 791 791 794 793 793 794 795 795 795 795 795 796 797 804 804 807 809 814 805 808 798 793 793
844 840 839 837 835 833 831 827 823 820 816 812 808 804 801 798 795 793 791 790 790 791 791 791 791 795 794 797 794 794 795 795 795 796 797 798 805 808 813 810 809 804 808 810 805 792 794
843 843 840 837 835 833 830 826 822 818 814 810 806 803 800 797 795 793 791 791 794 795 792 797 799 797 796 796 795 795 795 796 796 799 801 805 806 805 802 804 800 801 807 807 800 792 792
843 843 841 838 835 831 829 826 822 818 814 809 805 802 799 797 796 792 792 796 803 805 800 798 798 797 796 796 797 797 797 798 800 803 804 808 806 798 797 801 804 807 807 806 798 792 793
842 841 842 840 836 831 826 824 821 818 813 809 805 802 799 797 796 796 796 802 802 803 805 800 797 797 797 797 798 798 798 800 802 806 806 806 798 798 797 798 803 806 805 801 794 791 793
843 841 837 837 835 833 828 822 819 816 813 809 806 803 800 797 799 798 801 802 802 802 813 805 799 798 797 796 799 797 797 799 801 803 805 808 799 796 796 798 801 801 792 791 792 795 796
845 841 839 836 835 831 829 824 818 815 811 809 807 804 801 797 799 800 803 801 801 803 836 803 800 797 796 797 797 798 796 797 799 799 804 797 793 794 796 791 793 791 788 792 794 798 798
844 841 838 836 832 830 828 825 819 813 810 808 807 805 802 801 801 803 801 801 803 821 838 805 804 805 801 798 799 798 798 798 798 800 802 800 795 790 786 781 786 785 787 800 809 807 803
840 842 838 833 831 829 826 822 820 814 810 808 807 806 803 803 805 802 801 802 823 833 811 813 812 811 814 808 803 803 804 806 810 814 804 801 793 784 782 784 786 786 796 805 803 810 786
839 840 838 834 830 826 823 821 815 814 810 808 806 807 806 805 803 801 801 809 821 817 817 818 815 817 809 816 808 811 809 822 822 821 820 820 801 782 781 779 779 792 792 801 796 796 780
838 839 837 834 829 826 821 819 814 810 808 807 807 806 807 805 802 801 806 836 832 825 826 827 819 813 813 816 820 815 833 844 842 840 829 823 803 785 781 778 778 786 792 783 785 799 803
839 837 837 834 831 826 820 817 813 809 806 806 806 806 807 804 801 801 816 827 828 829 830 825 821 825 822 833 825 830 824 854 850 845 844 837 829 798 789 783 781 782 784 784 794 788 773
837 837 836 834 831 827 820 816 812 808 805 805 806 808 807 803 803 811 831 831 828 832 831 828 828 829 839 842 842 833 839 864 854 848 848 850 843 801 797 791 795 795 793 790 792 789 768
837 837 835 834 830 826 820 816 811 807 804 805 806 814 806 804 818 837 835 832 835 839 838 837 837 841 843 845 841 837 848 857 853 850 856 853 851 833 807 801 802 802 800 801 795 784 780
837 837 834 832 828 826 820 815 810 806 804 805 814 817 808 805 824 839 836 840 845 842 847 846 849 850 852 848 847 846 853 856 855 853 856 850 850 847 812 803 816 826 819 819 825 811 784
836 837 834 832 830 826 820 816 811 806 804 805 815 820 821 823 838 836 839 844 845 848 850 852 855 856 857 860 857 858 856 854 855 854 847 849 860 857 859 849 843 836 827 817 827 832 813
836 837 833 830 830 826 820 816 811 806 804 805 821 837 838 840 845 846 845 846 849 852 853 854 858 861 863 864 864 862 859 862 858 852 855 858 865 858 851 844 836 834 827 823 822 814 813
836 837 833 830 829 826 820 817 813 807 804 808 824 832 841 849 847 848 852 857 853 855 856 857 860 861 862 865 862 867 865 866 866 859 858 860 859 851 852 837 833 825 822 827 814 815 798
835 837 836 830 830 828 823 820 814 808 805 814 824 829 831 851 851 849 859 856 856 856 857 858 861 864 864 860 860 859 860 860 858 861 865 863 860 854 850 838 831 833 837 835 838 842 834
833 837 837 833 831 829 827 823 820 816 812 815 823 827 832 851 850 851 855 854 858 859 860 860 861 862 860 860 857 852 855 855 859 859 858 864 862 850 846 838 857 838 838 838 848 851 850
834 834 839 833 832 831 831 828 826 825 824 822 826 828 835 852 851 856 857 856 860 862 862 861 860 860 859 859 861 857 854 848 846 847 856 858 860 854 855 852 838 840 846 850 852 853 856
834 838 836 835 834 833 832 831 832 831 830 828 830 831 833 848 855 851 859 859 865 867 866 862 860 860 860 860 859 861 860 851 853 852 847 853 863 863 855 850 849 864 853 845 846 837 857
837 838 836 837 838 836 833 834 836 835 836 834 835 834 835 849 853 853 858 860 863 866 869 866 864 862 862 864 861 862 863 860 865 861 853 858 867 870 860 865 867 871 857 844 850 858 859
836 837 837 838 839 838 837 838 839 840 839 838 841 839 838 850 854 853 853 858 862 864 873 866 868 867 870 867 866 874 873 867 862 858 855 859 864 872 874 887 874 868 857 864 876 867 864
836 839 839 838 839 837 840 842 842 842 842 841 842 844 843 845 853 854 855 855 857 859 864 868 870 869 869 874 871 863 858 864 866 851 867 860 878 872 869 863 872 870 872 874 873 870 864
Wind_Speed
6 8 9 10 11 11 12 12 13 14 15 15 16 17 17 16 16 16 16 16 16 16 15 9 5 3 1 3 1 1 0 3 3 2 6 3 4 2 1 0 1 2 2 2 2 3 4
6 8 9 10 11 11 12 13 14 15 16 16 17 17 17 17 17 17 16 16 17 17 10 5 2 1 0 2 1 3 1 1 5 5 4 5 3 3 4 2 2 1 4 6 5 3 4
6 7 9 9 11 11 13 14 15 16 16 17 18 18 18 17 17 16 16 15 16 12 5 3 1 2 3 1 1 4 2 4 6 3 3 3 2 1 4 1 1 1 5 5 5 3 5
6 7 8 9 10 12 13 15 16 16 17 18 19 19 19 18 17 16 15 14 12 6 4 2 2 1 2 1 3 3 3 4 5 6 6 3 3 4 2 1 3 2 2 4 1 5 1
4 5 7 9 10 12 14 15 16 17 18 19 20 20 18 17 16 14 12 12 4 3 3 3 1 1 2 2 2 1 1 2 4 4 5 3 3 3 3 4 3 5 3 2 8 5 3
5 6 7 9 11 13 15 16 17 19 20 20 21 19 17 16 14 11 10 4 2 2 2 2 3 3 3 2 2 3 3 4 2 1 2 4 4 3 3 3 4 3 3 3 6 2 3
4 7 8 10 12 14 15 17 18 19 20 21 21 18 16 15 11 10 7 1 5 3 9 2 3 2 2 2 1 3 1 2 2 5 1 3 3 5 6 6 1 2 2 5 5 5 3
5 7 9 11 12 14 16 18 19 20 21 21 18 17 15 12 8 10 6 6 3 1 2 1 1 2 3 1 3 3 1 2 3 1 2 4 4 4 2 3 3 3 3 6 6 3 5
3 6 10 12 14 14 15 17 20 20 21 20 15 16 13 7 3 8 17 7 2 2 3 4 1 2 1 1 1 3 1 1 2 2 0 3 1 1 1 2 3 4 5 5 8 3 3
3 6 7 11 14 16 17 16 18 19 21 17 14 16 13 5 2 4 4 5 1 3 4 6 4 2 1 1 2 1 1 2 1 1 2 5 3 2 2 4 6 3 8 3 2 2 4
4 6 10 10 14 16 19 18 18 18 18 14 11 14 11 12 3 4 4 5 2 1 4 2 3 2 1 1 0 2 1 1 4 4 3 7 3 4 4 6 6 7 2 4 2 3 3
4 6 8 11 13 15 17 20 20 19 16 12 7 11 10 4 6 7 6 1 2 6 4 2 3 5 5 3 2 3 1 3 0 1 3 7 3 4 7 3 6 3 2 4 3 2 4
2 6 9 10 13 15 17 18 22 20 16 11 3 7 14 10 5 9 3 2 5 5 3 4 3 5 2 4 3 4 3 5 4 6 3 4 5 3 2 2 1 3 4 3 3 1 6
2 5 8 10 12 14 17 19 19 19 16 9 1 3 5 16 7 6 1 5 3 2 2 2 3 4 2 6 3 6 2 5 7 5 3 2 7 2 3 3 2 5 7 4 6 5 5
2 5 8 10 12 15 16 19 19 16 14 6 0 1 3 18 7 3 5 4 1 2 3 6 5 3 3 3 4 6 5 5 5 8 2 5 6 4 2 2 3 2 4 3 4 1 1
2 4 8 11 13 15 17 19 19 14 12 3 1 2 5 16 4 2 5 4 2 3 4 2 1 3 2 6 7 7 2 5 7 6 3 5 8 3 4 4 1 3 2 4 1 5 15
3 5 8 11 14 16 18 20 20 14 10 1 2 3 10 7 3 5 4 3 3 3 3 3 1 3 3 3 3 3 4 4 6 7 6 5 1 8 5 2 5 5 6 3 2 4 12
4 5 8 11 15 17 20 21 19 15 9 1 3 2 11 3 4 2 3 2 4 4 7 5 4 3 3 4 2 2 3 4 7 7 5 3 4 8 13 14 11 5 7 4 4 9 4
5 5 8 11 14 17 20 23 20 13 9 1 3 1 7 3 3 2 1 4 4 5 5 5 4 5 4 2 4 3 3 5 10 5 5 3 2 6 14 5 6 5 12 11 15 10 6
6 5 8 12 15 17 21 23 22 10 6 3 3 2 4 4 2 5 4 2 3 5 4 4 3 5 5 5 4 3 4 1 7 4 6 5 2 3 8 14 15 17 21 27 11 10 12
7 6 9 12 14 17 20 23 26 10 4 4 3 1 1 2 4 4 4 2 2 2 3 5 4 5 2 2 3 1 2 5 5 4 4 3 4 7 12 17 20 19 22 20 21 18 16
8 6 9 12 14 17 21 24 29 13 6 8 3 4 3 2 2 4 5 2 2 1 2 2 4 2 1 3 4 5 1 2 5 3 2 1 4 5 10 16 14 17 13 16 17 17 13
9 8 9 13 14 17 20 24 28 26 7 6 4 3 4 3 2 3 0 3 2 1 2 4 2 1 3 2 4 9 8 7 7 4 1 2 2 5 4 7 12 2 9 8 6 15 13
11 10 9 12 15 17 20 22 25 28 22 11 5 4 3 2 3 3 3 2 3 1 1 1 3 2 1 5 6 3 4 5 7 7 7 3 2 3 4 6 3 2 8 7 8 11 13
12 12 8 13 14 16 18 20 21 22 23 25 8 3 3 3 4 3 4 4 3 2 1 1 1 0 5 4 4 5 4 3 2 2 5 5 1 3 2 4 4 2 8 8 6 4 14
12 10 11 11 12 14 16 17 18 19 15 22 22 9 6 6 3 4 3 1 3 0 3 2 2 4 3 1 1 1 2 1 3 7 1 5 3 2 2 4 4 2 13 16 7 5 16
12 10 10 11 12 13 14 15 15 17 15 17 16 14 6 4 1 3 3 3 4 2 1 2 4 4 2 2 1 2 2 2 2 2 3 3 2 3 4 3 4 8 15 14 3 6 17
12 10 10 10 9 12 13 13 13 12 12 10 12 16 6 3 1 1 2 4 2 2 2 3 3 2 2 2 0 2 1 3 1 3 3 1 2 2 1 2 5 12 4 5 5 11 13
12 10 9 10 10 11 10 9 9 10 10 8 6 10 9 7 3 2 0 2 1 3 3 1 3 2 3 1 1 3 2 1 3 1 4 1 2 2 2 3 1 6 5 4 7 10 12
Wind_Direction
23 39 28 20 11 4 3 3 358 355 353 349 344 342 338 336 335 333 333 335 334 334 331 334 339 353 99 75 115 128 50 17 23 56 69 87 73 83 10 192 329 211 294 249 240 263 239
47 29 24 11 7 2 358 358 355 354 351 348 343 341 338 336 333 330 329 333 331 331 328 335 350 41 117 101 108 150 140 47 39 55 50 41 139 162 125 149 161 312 289 276 278 230 222
33 24 18 10 3 357 356 355 354 352 349 346 343 341 336 332 330 329 330 330 329 335 338 356 102 117 81 152 122 137 110 82 59 66 99 80 121 140 135 134 256 241 316 306 205 217 232
13 20 14 7 0 356 355 355 353 350 347 345 342 338 336 334 332 330 332 331 331 1 11 73 94 67 102 29 125 144 126 94 82 74 93 81 82 102 65 138 27 15 56 347 184 161 184
39 13 6 5 359 358 356 353 349 347 345 343 341 340 342 338 335 328 335 331 354 31 54 87 58 65 84 72 68 33 68 103 103 79 80 85 76 87 34 101 2 7 248 225 314 194 134
2 13 9 4 4 357 353 350 347 346 344 343 343 346 347 347 342 339 341 346 68 75 52 53 78 54 28 352 24 54 106 114 96 87 48 55 56 84 45 94 233 243 246 244 249 219 176
8 1 4 9 1 356 351 349 348 347 346 344 348 352 352 354 4 355 357 111 21 3 41 84 266 265 333 353 39 59 75 100 24 51 18 15 60 222 218 206 124 116 198 252 262 249 238
9 3 4 359 357 355 353 350 349 348 346 347 355 359 358 1 33 21 36 68 60 265 341 2 266 287 274 330 34 7 91 76 44 10 350 9 245 241 213 141 178 174 229 253 272 256 192
16 17 360 354 352 353 357 352 348 347 346 351 2 3 0 359 22 40 73 72 49 135 84 331 12 49 297 53 77 341 88 90 75 18 305 212 252 63 294 226 181 209 204 224 233 321 247
5 7 7 356 354 349 350 354 351 350 350 356 7 3 5 2 121 65 60 19 37 163 77 323 337 340 21 104 63 292 160 130 94 230 203 232 271 234 210 252 165 259 226 241 271 14 261
354 3 0 4 354 354 348 350 352 353 356 358 4 3 7 36 88 60 337 340 156 148 34 305 348 311 315 103 219 323 231 96 197 183 124 256 229 216 215 221 165 234 141 181 188 206 323
350 352 6 1 358 356 352 348 350 354 356 1 3 11 11 26 58 10 337 54 153 44 261 4 321 349 12 14 21 325 357 18 82 244 230 248 309 230 213 220 190 131 114 53 57 103 248
352 354 358 3 1 357 355 354 349 350 354 359 12 26 40 40 345 344 354 64 35 119 313 346 328 5 340 318 351 10 358 2 5 352 353 310 234 276 170 204 95 117 75 313 304 216 238
10 2 357 2 4 1 358 354 354 350 355 359 52 37 40 22 348 353 26 53 86 287 2 348 329 315 348 16 8 345 38 20 23 6 307 329 320 206 173 218 219 184 167 177 252 232 248
71 5 360 3 5 2 3 355 353 356 353 359 128 116 34 350 359 3 74 57 213 34 318 349 324 13 342 18 21 22 67 20 31 10 348 337 271 311 229 282 150 188 192 203 242 103 280
71 20 4 6 5 3 5 358 354 357 351 7 177 126 12 350 9 59 75 118 80 41 340 9 6 47 317 342 7 26 35 357 342 3 295 348 296 273 324 351 356 208 290 278 290 254 258
89 35 18 9 6 4 5 1 357 2 357 39 147 66 354 357 40 48 108 146 118 73 17 33 56 316 40 357 320 302 30 353 355 330 45 8 298 281 342 210 328 350 314 292 251 227 262
96 52 31 12 9 6 7 4 2 4 9 50 99 46 354 20 50 34 100 77 29 7 11 15 82 73 54 19 322 311 55 81 360 19 11 335 288 280 283 288 283 257 305 317 268 282 251
106 64 40 21 18 9 11 8 6 3 21 56 83 288 357 12 123 80 95 66 61 28 37 21 50 46 20 34 329 29 39 171 34 13 354 336 317 314 303 308 43 7 327 321 328 276 250
111 72 47 26 17 17 17 11 9 7 20 85 84 31 354 43 28 109 128 84 102 28 67 64 61 65 41 14 14 326 342 16 341 326 348 25 355 265 283 300 305 293 292 300 284 283 295
113 74 55 42 22 22 25 20 16 21 56 93 30 122 175 33 20 74 71 60 85 34 23 32 80 69 62 322 309 237 236 333 302 302 35 65 268 264 279 274 275 281 282 290 288 280 255
114 79 63 52 36 31 32 29 25 26 67 79 113 131 44 88 39 67 13 43 105 26 57 54 82 319 182 203 216 273 175 190 229 332 49 263 266 316 286 285 292 296 317 328 308 312 288
115 85 69 62 49 41 39 34 33 34 50 90 95 94 102 339 67 90 74 146 124 91 80 85 102 331 312 264 232 246 219 212 233 266 118 229 264 298 261 322 313 65 338 27 51 28 13
115 98 73 71 60 49 42 41 38 40 49 92 90 117 93 93 82 102 139 107 120 72 126 343 130 164 276 320 283 280 249 242 210 238 196 202 216 264 280 313 4 70 26 1 70 41 23
128 106 91 79 66 55 48 46 45 46 51 68 63 79 102 100 110 102 110 109 97 13 68 290 305 267 326 345 0 338 345 14 31 206 184 195 175 276 281 295 237 324 3 347 353 35 15
125 120 96 84 73 63 54 49 49 50 52 60 47 57 91 119 222 124 127 96 129 97 9 269 323 336 21 23 351 302 270 340 317 331 157 198 183 172 312 293 287 30 320 320 305 209 6
134 119 101 92 80 72 60 54 53 45 41 59 47 39 80 102 262 106 142 150 129 109 142 297 341 3 352 32 284 243 278 192 244 225 270 305 352 187 272 248 279 338 321 310 58 317 336
131 122 116 102 90 74 63 55 40 43 45 60 59 43 59 97 350 79 99 116 80 80 112 291 35 2 13 42 237 275 176 252 242 244 313 270 318 305 306 340 294 358 354 61 279 306 315
132 131 120 107 96 82 69 58 46 45 49 52 73 53 57 81 157 91 354 199 61 179 140 43 179 229 217 63 209 271 276 306 194 300 33 174 357 299 284 315 61 358 116 36 328 305 312